This demonstration page uses our WeatherBlox Daily Observations layout. Learn more.

Left ArrowRight Arrow

Hourly Observations for September 7, 2021

Temp ( °F °C ) Dew Point ( °F °C ) Humidity (%) Winds ( mph kmh ) Pressure ( in mb ) Visibility ( mi km ) Precip ( " mm )
12:53 am 00:53 Clear 74 23.3 65 18.3 74 74 SSW 9 15 29.78 1009 10 16 0.00 0.00
1:53 am 01:53 Clear 72 22.2 63 17.2 73 73 SSW 8 13 29.78 1008 10 16 0.00 0.00
2:53 am 02:53 Clear 71 21.7 62 16.7 73 73 SSW 8 13 29.77 1008 10 16 0.00 0.00
3:53 am 03:53 Clear 70 21.1 62 16.7 76 76 SSW 7 11 29.77 1008 10 16 0.00 0.00
4:53 am 04:53 Clear 68 20 63 17.2 84 84 SSW 5 7 29.77 1008 10 16 0.00 0.00
5:53 am 05:53 Clear 67 19.4 62 16.7 84 84 Calm 29.77 1008 10 16 0.00 0.00
6:53 am 06:53 Clear 64 17.8 62 16.7 93 93 WSW 5 7 29.80 1009 10 16 0.00 0.00
7:53 am 07:53 Sunny 65 18.3 62 16.7 90 90 NW 7 11 29.84 1010 9 14 0.00 0.00
8:53 am 08:53 Sunny 69 20.6 60 15.6 73 73 N 13 20 29.86 1011 10 16 0.00 0.00
10:53 am 10:53 Sunny 76 24.4 53 11.7 45 45 N 25 41 29.93 1014 10 16 0.00 0.00
11:53 am 11:53 Sunny 78 25.6 55 12.8 45 45 N 21 33 29.97 1015 10 16 0.00 0.00
12:53 pm 12:53 Sunny 79 26.1 55 12.8 44 44 N 22 35 29.98 1015 10 16 0.00 0.00
1:53 pm 13:53 Sunny 80 26.7 53 11.7 39 39 NNE 18 30 29.99 1016 10 16 0.00 0.00
2:53 pm 14:53 Sunny 80 26.7 53 11.7 39 39 NNE 14 22 29.99 1016 10 16 0.00 0.00
3:53 pm 15:53 Sunny 79 26.1 53 11.7 41 41 N 15 24 29.99 1016 10 16 0.00 0.00
4:53 pm 16:53 Sunny 79 26.1 52 11.1 39 39 N 12 19 29.99 1016 10 16 0.00 0.00
5:53 pm 17:53 Sunny 78 25.6 52 11.1 40 40 N 14 22 30.00 1016 10 16 0.00 0.00
6:53 pm 18:53 Sunny 76 24.4 53 11.7 45 45 N 8 13 30.00 1016 10 16 0.00 0.00
7:53 pm 19:53 Sunny 70 21.1 56 13.3 61 61 NNW 6 9 30.01 1016 10 16 0.00 0.00
8:53 pm 20:53 Clear 66 18.9 55 12.8 68 68 NNW 6 9 30.03 1017 10 16 0.00 0.00
9:53 pm 21:53 Clear 63 17.2 55 12.8 76 76 N 6 9 30.06 1018 10 16 0.00 0.00
10:53 pm 22:53 Clear 62 16.7 53 11.7 73 73 NNW 5 7 30.06 1018 10 16 0.00 0.00
11:53 pm 23:53 Clear 60 15.6 53 11.7 78 78 Calm 30.07 1018 10 16 0.00 0.00

Powered by AerisWeather